Weather History for Buffalo, MN

Change the Weather History Date:

Tuesday, September 3, 2013

  Actual Average (KSTC) Record (KSTC)
Temperature  
Mean Temperature 60 °F 64 °F  
Max Temperature 76 °F 75 °F 96 °F (1929)
Min Temperature 45 °F 52 °F 27 °F (1974)
Degree Days  
Heating Degree Days 4 4  
Month to date heating degree days 10  
Since 1 July heating degree days 68  
Cooling Degree Days 0 2  
Month to date cooling degree days 6  
Year to date cooling degree days 435  
Growing Degree Days 10 (Base 50)    
Moisture  
Dew Point 52 °F    
Average Humidity 75    
Maximum Humidity 94    
Minimum Humidity 50    
Precipitation  
Precipitation 0.00 in 0.13 in 1.61 in (2006)
Month to date precipitation 0.41  
Year to date precipitation 19.99  
Snow  
Snow 0.00 in 0.00 in T in (1989)
Month to date snowfall 0.0  
Since 1 July snowfall 0.0  
Since 1 September snowfall 0.0  
Snow Depth -    
Sea Level Pressure  
Sea Level Pressure 30.06 in    
Wind  
Wind Speed 1 mph (SSW)    
Max Wind Speed 7 mph    
Max Gust Speed -    
Visibility 9 miles    
Events      
T = Trace of Precipitation, MM = Missing Value Source: NWS Daily Summary

Daily Weather History Graph

Daily Weather History Graph

Search for Another Location

Airport:

Trip Planner

Search our weather history database for the weather conditions in past years. The results will help you decide how hot, cold, wet, or windy it might be!

Date:

Astronomy

Sep. 03, 2013 Rise Set
Actual Time 6:39 AM CDT 7:48 PM CDT
Civil Twilight 6:09 AM CDT 8:18 PM CDT
Nautical Twilight 5:33 AM CDT 8:54 PM CDT
Astronomical Twilight 4:54 AM CDT 9:32 PM CDT
Moon 4:52 AM CDT (9/3) 6:36 PM CDT (9/3)
Length of Visible Light 14h 08m
Length of Day
13h 08m
Waning Crescent, 3% of the Moon is Illuminated
Sep 3
Waning Crescent
Sep 5
New
Sep 12
First Quarter
Sep 19
Full
Sep 26
Last Quarter

Hourly Weather History & Observations

Time (CDT) Temp. Dew Point Humidity Pressure Visibility Wind Dir Wind Speed Gust Speed Precip Events Conditions
12:14 AM 52.3 °F 49.3 °F 89% 30.07 in 10.0 mi Calm Calm - N/A   Clear
12:34 AM 51.1 °F 47.5 °F 87% 30.07 in 10.0 mi Calm Calm - N/A   Clear
12:54 AM 50.0 °F 47.1 °F 90% 30.07 in 10.0 mi Calm Calm - N/A   Clear
1:14 AM 48.9 °F 46.2 °F 90% 30.07 in 10.0 mi Calm Calm - N/A   Clear
1:34 AM 49.1 °F 46.4 °F 90% 30.07 in 10.0 mi Calm Calm - N/A   Clear
1:54 AM 49.3 °F 46.8 °F 91% 30.06 in 7.0 mi Calm Calm - N/A   Clear
2:14 AM 47.8 °F 45.3 °F 91% 30.07 in 10.0 mi Calm Calm - N/A   Clear
2:34 AM 48.4 °F 46.0 °F 92% 30.07 in 10.0 mi Calm Calm - N/A   Clear
2:54 AM 49.1 °F 46.9 °F 92% 30.07 in 7.0 mi Calm Calm - N/A   Clear
3:14 AM 48.0 °F 45.1 °F 90% 30.07 in 10.0 mi Calm Calm - N/A   Clear
3:34 AM 47.5 °F 45.1 °F 92% 30.07 in 10.0 mi Calm Calm - N/A   Clear
3:54 AM 47.1 °F 44.6 °F 91% 30.06 in 7.0 mi Calm Calm - N/A   Clear
4:13 AM 46.2 °F 44.1 °F 92% 30.07 in 7.0 mi Calm Calm - N/A   Clear
4:34 AM 46.8 °F 44.8 °F 93% 30.07 in 10.0 mi Calm Calm - N/A   Clear
4:54 AM 47.3 °F 45.1 °F 92% 30.08 in 7.0 mi Calm Calm - N/A   Clear
5:14 AM 46.9 °F 44.8 °F 92% 30.08 in 7.0 mi Calm Calm - N/A   Clear
5:34 AM 46.4 °F 44.2 °F 92% 30.08 in 5.0 mi Calm Calm - N/A   Clear
5:54 AM 45.9 °F 43.9 °F 93% 30.09 in 7.0 mi Calm Calm - N/A   Clear
6:14 AM 46.2 °F 44.1 °F 92% 30.10 in 10.0 mi Calm Calm - N/A   Clear
6:34 AM 46.4 °F 44.2 °F 92% 30.11 in 7.0 mi Calm Calm - N/A   Clear
6:54 AM 46.8 °F 44.4 °F 92% 30.11 in 5.0 mi Calm Calm - N/A   Clear
7:14 AM 49.6 °F 47.8 °F 94% 30.11 in 4.0 mi Calm Calm - N/A   Clear
7:34 AM 51.1 °F 49.3 °F 94% 30.11 in 5.0 mi Calm Calm - N/A   Clear
7:54 AM 51.4 °F 49.5 °F 93% 30.11 in 7.0 mi Calm Calm - N/A   Clear
8:14 AM 52.3 °F 50.2 °F 92% 30.11 in 7.0 mi SSW 3.5 mph - N/A   Clear
8:34 AM 53.8 °F 51.6 °F 92% 30.11 in 10.0 mi Calm Calm - N/A   Clear
8:54 AM 55.9 °F 52.7 °F 89% 30.11 in 10.0 mi SSW 3.5 mph - N/A   Clear
9:14 AM 57.7 °F 52.7 °F 83% 30.11 in 10.0 mi SSW 4.6 mph - N/A   Clear
9:34 AM 59.4 °F 52.7 °F 79% 30.11 in 10.0 mi South 5.8 mph - N/A   Clear
9:54 AM 60.4 °F 52.9 °F 76% 30.11 in 10.0 mi SSW 4.6 mph - N/A   Clear
10:14 AM 62.1 °F 53.1 °F 72% 30.11 in 10.0 mi South 4.6 mph - N/A   Clear
10:34 AM 62.1 °F 52.3 °F 70% 30.11 in 10.0 mi South 4.6 mph - N/A   Clear
10:53 AM 63.0 °F 53.1 °F 70% 30.11 in 10.0 mi SSE 4.6 mph - N/A   Clear
11:14 AM 65.5 °F 53.4 °F 65% 30.10 in 10.0 mi South 5.8 mph - N/A   Clear
11:33 AM 65.5 °F 53.2 °F 65% 30.09 in 10.0 mi Calm Calm - N/A   Clear
11:54 AM 65.5 °F 53.2 °F 65% 30.09 in 10.0 mi South 6.9 mph - N/A   Clear
12:13 PM 66.2 °F 53.4 °F 63% 30.09 in 10.0 mi South 5.8 mph - N/A   Clear
12:34 PM 67.3 °F 53.2 °F 61% 30.08 in 10.0 mi SW 3.5 mph - N/A   Clear
12:54 PM 66.9 °F 53.6 °F 62% 30.07 in 10.0 mi South 4.6 mph - N/A   Clear
1:14 PM 68.0 °F 53.6 °F 60% 30.07 in 10.0 mi South 5.8 mph - N/A   Clear
1:34 PM 68.2 °F 54.3 °F 61% 30.07 in 10.0 mi SSW 3.5 mph - N/A   Clear
1:53 PM 70.5 °F 54.9 °F 58% 30.06 in 10.0 mi Calm Calm - N/A   Clear
2:14 PM 72.7 °F 55.9 °F 56% 30.05 in 10.0 mi SW 3.5 mph - N/A   Clear
2:33 PM 72.5 °F 55.0 °F 54% 30.05 in 10.0 mi SSW 3.5 mph - N/A   Clear
2:54 PM 73.4 °F 55.4 °F 53% 30.04 in 10.0 mi South 4.6 mph - N/A   Clear
3:14 PM 74.3 °F 56.3 °F 53% 30.04 in 10.0 mi SSW 5.8 mph - N/A   Clear
3:34 PM 74.7 °F 56.3 °F 53% 30.03 in 10.0 mi SW 3.5 mph - N/A   Clear
3:54 PM 75.6 °F 56.3 °F 51% 30.02 in 10.0 mi SW 4.6 mph - N/A   Clear
4:14 PM 75.9 °F 56.7 °F 51% 30.02 in 10.0 mi WSW 4.6 mph - N/A   Clear
4:34 PM 76.1 °F 56.3 °F 50% 30.03 in 10.0 mi WSW 3.5 mph - N/A   Clear
4:54 PM 76.1 °F 56.1 °F 50% 30.02 in 10.0 mi SSW 4.6 mph - N/A   Clear
5:14 PM 75.2 °F 56.7 °F 52% 30.02 in 10.0 mi South 5.8 mph - N/A   Clear
5:34 PM 75.9 °F 57.4 °F 52% 30.02 in 10.0 mi South 4.6 mph - N/A   Clear
5:54 PM 76.1 °F 57.2 °F 52% 30.02 in 10.0 mi SSW 4.6 mph - N/A   Clear
6:14 PM 75.2 °F 56.7 °F 52% 30.02 in 10.0 mi Calm Calm - N/A   Clear
6:34 PM 74.3 °F 56.5 °F 54% 30.01 in 10.0 mi SSW 3.5 mph - N/A   Clear
6:53 PM 74.3 °F 57.6 °F 56% 30.01 in 10.0 mi South 3.5 mph - N/A   Clear
7:14 PM 73.4 °F 57.4 °F 57% 30.01 in 10.0 mi South 3.5 mph - N/A   Clear
7:34 PM 72.5 °F 58.3 °F 61% 30.01 in 10.0 mi Calm Calm - N/A   Clear
7:53 PM 70.2 °F 58.3 °F 66% 30.01 in 10.0 mi Calm Calm - N/A   Clear
8:14 PM 68.5 °F 60.4 °F 75% 30.02 in 10.0 mi Calm Calm - N/A   Clear
8:33 PM 67.8 °F 59.0 °F 73% 30.02 in 10.0 mi Calm Calm - N/A   Clear
8:54 PM 67.1 °F 59.2 °F 76% 30.02 in 10.0 mi Calm Calm - N/A   Clear
9:14 PM 67.1 °F 59.0 °F 75% 30.02 in 10.0 mi Calm Calm - N/A   Clear
9:33 PM 66.4 °F 58.1 °F 75% 30.03 in 10.0 mi South 3.5 mph - N/A   Clear
9:54 PM 66.2 °F 58.3 °F 76% 30.02 in 10.0 mi South 3.5 mph - N/A   Clear
10:14 PM 65.5 °F 58.6 °F 79% 30.03 in 10.0 mi Calm Calm - N/A   Clear
10:33 PM 63.0 °F 56.5 °F 79% 30.03 in 10.0 mi Calm Calm - N/A   Clear
10:54 PM 62.1 °F 56.8 °F 83% 30.03 in 10.0 mi South 3.5 mph - N/A   Clear
11:14 PM 62.8 °F 57.6 °F 83% 30.03 in 10.0 mi SSW 3.5 mph - N/A   Clear
11:34 PM 62.6 °F 57.2 °F 82% 30.03 in 10.0 mi Calm Calm - N/A   Clear
11:54 PM 63.1 °F 57.0 °F 80% 30.02 in 10.0 mi Calm Calm - N/A   Clear